Current weather by "City, St" or "zip code"  
 

Current Conditions: BURBANK

Clear


57.0 F

Last Updated on May 26 2024, 12:53 AM PDT
Humidity: 77%
Wind Speed: S 3.4 mph
Barometer 29.99 in
Dewpoint: 50.0 F
Visibility: 10.00 mi
Precip: --
Heat Index: NA
Wind Chill: NA
Current conditions at:

BURBANK (KBUR)

Lat: 34.2 Lon: 118.35

active severe weather and emergency alerts image image weather storm and storm spotter reports image weather observation monitoring service image
Active
Alerts
Storm Reports Obs
Monitoring

Sign-up For Email & Text Message Weather Alert Notification Services



Advertise Here

Observation History for BURBANK


Time Wind
(mph)
Vis
(mi)
Weather Precip (in) Temperature (F) Relative
Humidity
Wind
Chill
(F)
Heat
Index
(F)
Pressure
Air Dwpt altimeter
(in)
sea level
(mb)
Rmks
12:53 AM PDT S 3.4 10.00 Clear -- 57.0 50.0 77% NA NA 29.99 1015.6
11:53 PM PDT 0.0 10.00 Clear -- 57.0 51.1 81% NA NA 29.99 1015.6
10:53 PM PDT S 4.7 10.00 Cloudy -- 57.9 50.0 75% NA NA 30.00 1015.9
09:53 PM PDT S 4.7 10.00 Cloudy -- 60.1 46.9 62% NA NA 30.00 1015.9
08:53 PM PDT S 8.1 10.00 Cloudy -- 60.1 48.0 64% NA NA 29.99 1015.6
07:53 PM PDT S 6.9 10.00 Mostly Cloudy -- 61.0 48.0 62% NA NA 29.97 1014.9
06:53 PM PDT S 10.3 10.00 Clear -- 64.0 48.0 56% NA NA 29.96 1014.6
05:53 PM PDT S 8.1 10.00 Clear -- 66.0 48.9 54% NA NA 29.95 1014.2
04:53 PM PDT S 3.4 10.00 Clear -- 66.0 48.9 54% NA NA 29.96 1014.6
03:53 PM PDT S 9.2 10.00 Mostly Clear -- 68.0 50.0 53% NA NA 29.97 1014.9
02:53 PM PDT S 11.4 10.00 Mostly Clear -- 66.9 48.9 52% NA NA 29.98 1015.2
01:53 PM PDT 5.8 10.00 Mostly Clear -- 66.9 48.0 51% NA NA 29.99 1015.6
12:53 PM PDT SE 9.2 10.00 Mostly Cloudy -- 64.0 46.9 54% NA NA 30.00 1015.9
11:53 AM PDT 9.2 10.00 Mostly Cloudy -- 63.0 46.9 56% NA NA 30.01 1016.3
11:30 AM PDT 10.3 10.00 Cloudy -- 61.0 46.9 60% NA NA 30.01 1016.3
10:53 AM PDT 9.2 10.00 Cloudy -- 60.1 46.9 62% NA NA 30.01 1016.3
09:53 AM PDT 5.8 10.00 Cloudy -- 60.1 48.0 64% NA NA 30.00 1015.9
08:53 AM PDT 6.9 10.00 Mostly Cloudy -- 57.0 46.9 69% NA NA 30.00 1015.9
08:00 AM PDT S 4.7 10.00 NULL -- 55.0 46.9 74% NA NA 29.99 1015.6
07:53 AM PDT 3.4 10.00 Cloudy -- 55.0 48.0 77% NA NA 29.98 1015.2
06:53 AM PDT 0.0 10.00 Cloudy -- 54.0 48.0 80% NA NA 29.97 1014.9
05:53 AM PDT E 4.7 10.00 Mostly Cloudy -- 54.0 48.0 80% NA NA 29.95 1014.2
03:53 AM PDT SE 6.9 10.00 Partly Cloudy -- 53.1 48.0 83% NA NA 29.94 1013.9
03:05 AM PDT 6.9 10.00 Mostly Cloudy -- 53.1 48.9 86% NA NA 29.94 1013.9

Regional Weather Observation


LA / WHITEMAN (KWHP)

Partly Cloudy
64.4 F

BURBANK (KBUR)

Clear
57.0 F

SANTA MONICA (KSMO)

Clear
57.0 F

()


F

SANDBERG (KSDB)

Clear and Windy
52.0 F

LANCASTER/FOX (KWJF)

Clear and Windy
57.9 F

Advertise Here


Advertise Here